sat.trackr.live / text

‹ back to catalog

SARSAT 13 (METOP-B)

NORAD 38771 · 2012-049A

PAYLOAD ACTIVE UNKNOWN

§ Identity

Operator
Country
EUME
Launch date
2012-09-17
Launch site
TYMSC
Launch vehicle
Mass (kg)
RCS (m²)
13.65

Purposes: earth_obs

External: N2YO · Heavens-Above · Gunter

§ Orbital elements

Epoch: 2026-05-25T04:07:06.962304Z

Period
101.31 min
Inclination
98.6518°
Eccentricity
0.0003303
Mean motion
14.21425461 rev/d
Perigee alt
818.2 km
Apogee alt
822.9 km
Semi-major
7,198.7 km
B*
6.0392e-5
RAAN
197.1283°
Arg perigee
69.0453°
Mean anomaly
291.1078°
Rev number
70,999

§ Raw data

SARSAT 13 (METOP-B)1 38771U 12049A   26145.17160836  .00000089  00000+0  60392-4 0  99922 38771  98.6518 197.1283 0003303  69.0453 291.1078 14.21425461709994

JSON: /api/v1/satellites/38771 · /tle

For live sub-satellite position, see the globe view (requires WebGL).

§ Visibility from observer

Set your observer location to see the next 7 days of passes ≥ 10°. The values pass through the URL so the page stays shareable.

No JS? Fill the form by hand. The geolocation button needs JavaScript.

§ Radio — SatNOGS DB

ModeDescriptionDownlinkUplink
AHRPT AHRPT Downlink 1.701 GHz
BPSK ARGOS-3 465.988 MHz
BPSK PMT-A3 ARGOS-3 A-DCS 465.9875MHz 465.988 MHz
CW Beacon 2.230 GHz
FM Mode X (active over Norway) 7.800 GHz
BPSK SARSAT L-Band 1.545 GHz

6 transmitters · refreshed weekly from db.satnogs.org